User: anonymous   Login
Location: Curupao
(10.4996°N, 66.6442°W)
Time: 13:30:19
(UTC+00:00)
Language:

USA 215 - Orbit

View from above orbital plane
View from above orbital plane
View from above satellite
View from above satellite

Ground track
Ground track

The orbit data is extracted from the following two-line orbital elements,

1 37162U 10046A   24113.10300628 0.00000000  00000-0  00000-0 0    04
2 37162 123.0049  16.7606 0005041 162.7507 197.2493 13.41453813    02
Epoch (UTC): 22 April 2024 02:28:19
Eccentricity: 0.0005041
inclination: 123.0049°
perigee height: 1100 km
apogee height: 1107 km
right ascension of ascending node: 16.7606°
argument of perigee: 162.7507°
revolutions per day: 13.41453813
mean anomaly at epoch: 197.2493°
orbit number at epoch: 0

The dashed part of the orbit path shows where the satellite is in the earth's shadow,  

DLR